This is the latest recevied weather packets stored in our database for station/object WO5CID. If no packets are shown the sender has not sent any weather packets the latest 1 day(s).
| Time | Temp. | Humidity | Pressure | Rain* | Wind** | Luminosity | Snow |
|---|---|---|---|---|---|---|---|
| 1778096736 | 33.89° C | 36% | 1014.6 hPa | 0 mm | - | 686 W/m² | - |
| 1778096130 | 33.89° C | 38% | 1014.9 hPa | 0 mm | - | 746 W/m² | - |
| 1778095827 | 33.89° C | 36% | 1015 hPa | 0 mm | - | 756 W/m² | - |
| 1778093704 | 33.89° C | 38% | 1015.6 hPa | 0 mm | - | 807 W/m² | - |
| 1778092490 | 32.78° C | 37% | 1015.6 hPa | 0 mm | - | 818 W/m² | - |
| 1778089455 | 32.22° C | 41% | 1016.3 hPa | 0 mm | - | 965 W/m² | - |
| 1778089152 | 32.78° C | 41% | 1016.2 hPa | 0 mm | - | 904 W/m² | - |
| 1778088546 | 31.67° C | 43% | 1016.7 hPa | 0 mm | - | 825 W/m² | - |
| 1778087637 | 31.67° C | 43% | 1016.5 hPa | 0 mm | - | 706 W/m² | - |
| 1778086123 | 30.56° C | 45% | 1016.9 hPa | 0 mm | - | 816 W/m² | - |
| 1778085820 | 30.56° C | 44% | 1017 hPa | 0 mm | - | 582 W/m² | - |
| 1778085212 | 30.56° C | 45% | 1016.9 hPa | 0 mm | - | 691 W/m² | - |
| 1778083388 | 30° C | 46% | 1017.2 hPa | 0 mm | - | 750 W/m² | - |
| 1778083087 | 30° C | 47% | 1017.3 hPa | 0 mm | - | 760 W/m² | - |
| 1778082783 | 30° C | 45% | 1017.4 hPa | 0 mm | - | 699 W/m² | - |
| 1778081348 | 30° C | 49% | 1017.5 hPa | 0 mm | - | 806 W/m² | - |
| 1778079530 | 28.33° C | 56% | 1017.3 hPa | 0 mm | - | 633 W/m² | - |
| 1778079226 | 28.33° C | 56% | 1017.2 hPa | 0 mm | - | 626 W/m² | - |
| 1778078924 | 28.33° C | 58% | 1017.2 hPa | 0 mm | - | 634 W/m² | - |
| 1778078319 | 27.78° C | 60% | 1017.2 hPa | 0 mm | - | 519 W/m² | - |
| 1778077714 | 27.78° C | 59% | 1017.3 hPa | 0 mm | - | 576 W/m² | - |
| 1778076202 | 26.67° C | 64% | 1017.3 hPa | 0 mm | - | 434 W/m² | - |
| 1778075899 | 26.11° C | 66% | 1017.3 hPa | 0 mm | - | 485 W/m² | - |
| 1778075292 | 26.11° C | 66% | 1017.1 hPa | 0 mm | - | 457 W/m² | - |
| 1778074079 | 25° C | 69% | 1017 hPa | 0 mm | - | 367 W/m² | - |
* Rain latest hour (hover to see other rain measurements)
** Current wind speed in m/s (hover to see current wind gust speed)